Regional Weather Roundup
Issued by NWS

Home | Current Version | Previous Version | Text Only | Print | Product List | Glossary On
Versions: 1 2 3 4 5 6 7 8 9 10 11 12 13 14 15 16 17 18 19 20 21 22 23 24 25 26 27 28 29 30 31 32 33 34 35 36 37 38 39 40 41 42 43 44 45 46 47 48 49 50
000
ASUS45 KREV 281110
RWRNV
NEVADA REGIONAL WEATHER ROUNDUP
NATIONAL WEATHER SERVICE RENO NV
300 AM PST SUN DEC 28 2014

NOTE: "FAIR" INDICATES FEW OR NO CLOUDS BELOW 12,000 FEET WITH NO
SIGNIFICANT WEATHER AND/OR OBSTRUCTIONS TO VISIBILITY.

NVZ001-003-004-281200-
WESTERN NEVADA

CITY           SKY/WX    TMP DP  RH WIND       PRES   REMARKS
RENO           CLOUDY    28  21  75 CALM      30.25F
CARSON CITY    CLOUDY    27  19  74 CALM      30.25F
MINDEN         CLOUDY    21  19  93 E3        30.27
SLIDE MTN        N/A     25  21  86 N13         N/A
PYRAMID LAKE     N/A     36 N/A N/A W7          N/A
FALLON         MOCLDY    27  15  61 S7        30.24F
LOVELOCK       PTCLDY    23  16  74 CALM      30.22F
HAWTHORNE      MOCLDY    25  18  74 CALM      30.27F
$$

NVZ002-CAZ072-073-281200-
NORTHERN AND CENTRAL SIERRA

CITY           SKY/WX    TMP DP  RH WIND       PRES   REMARKS
S. LAKE TAHOE  CLOUDY    25  16  68 CALM      30.25S
TRUCKEE        PTCLDY    19  18  93 CALM      30.26F
SQUAW VLY 8000   N/A     30  23  74 VRB10       N/A
SUSANVILLE     CLEAR    N/A N/A N/A CALM        N/A
BLUE CANYON    MOCLDY    33  15  47 E5        30.28F
MAMMOTH LAKES  FAIR      12   7  79 CALM      30.25R
BRIDGEPORT     FAIR      21  11  65 CALM      30.22S
$$

NVZ030-031-036-281200-
NORTHERN NEVADA

CITY           SKY/WX    TMP DP  RH WIND       PRES   REMARKS
ELKO           CLOUDY    28  18  66 W3        30.13F
WINNEMUCCA     MOCLDY    31  18  58 S9        30.17F
WENDOVER       PTCLDY    23  14  68 NE8       30.13F
$$

NVZ035-037-281200-
CENTRAL NEVADA

CITY           SKY/WX    TMP DP  RH WIND       PRES   REMARKS
ELY            CLOUDY    14   7  73 S10       30.18F
EUREKA           N/A     27  12  53 VRB6      30.17F
$$

NVZ013-014-281200-
SOUTH CENTRAL NEVADA

CITY           SKY/WX    TMP DP  RH WIND       PRES   REMARKS
TONOPAH        PTCLDY    17   8  67 N6        30.24F
$$

NVZ017-020-022-281200-
SOUTHERN NEVADA

CITY           SKY/WX    TMP DP  RH WIND       PRES   REMARKS
LAS VEGAS      MOCLDY    35  12  38 SW5       30.26F
N. LAS VEGAS   MOCLDY    34  13  41 N5        30.29F
NELLIS AFB     MOCLDY    30  14  50 NE6       30.31F
HENDERSON      MOCLDY    31  11  43 SW8       30.29F
MERCURY        MOCLDY    27  15  61 CALM      30.27R
$$


USA.gov is the U.S. government's official web portal to all federal, state and local government web resources and services.